Temp
9 9 9 9 9 9 9 9 9 9 9 9 8 7 8 8 8 8 7 7 7 7 7 7 7 7 6 6 6 5 5 5 5 5 4 4 4 4 4 4 4 3
9 8 8 9 9 9 9 9 9 9 9 8 7 7 8 8 8 8 7 7 7 7 7 7 7 7 6 6 6 6 5 5 5 5 4 4 4 4 4 4 4 3
9 8 9 9 9 9 9 9 9 9 8 7 7 7 7 7 8 7 7 7 7 7 7 7 7 6 6 6 6 6 5 5 5 5 4 4 4 4 4 4 4 3
8 8 9 9 8 8 9 9 9 8 7 7 7 7 7 7 7 7 7 7 7 7 7 7 7 6 6 6 6 6 5 5 5 5 5 4 4 4 4 4 4 3
8 8 8 8 8 8 8 9 8 7 7 7 8 7 7 7 7 7 7 7 7 7 7 7 6 6 6 6 6 6 6 5 5 5 5 4 4 4 4 4 4 3
8 8 8 8 8 8 9 9 8 7 7 8 8 7 7 7 7 7 7 7 7 7 6 6 6 6 6 6 6 6 5 5 5 5 5 4 4 4 4 4 3 3
8 8 8 8 8 8 9 9 8 7 7 7 7 7 7 8 7 7 7 7 7 7 7 7 7 7 6 6 6 6 5 5 5 5 5 4 4 4 4 4 3 3
8 8 8 8 8 8 8 8 8 8 8 7 7 7 7 8 8 7 7 7 7 7 7 6 6 6 6 6 6 6 6 5 5 5 4 4 4 4 4 4 3 3
8 8 8 8 8 8 8 8 8 8 8 7 7 7 7 8 8 8 7 7 7 7 7 7 6 6 6 6 6 6 5 5 5 5 4 4 4 4 4 4 3 3
8 8 8 8 8 8 8 8 8 8 8 7 7 7 8 8 8 8 8 7 7 7 7 7 6 6 6 6 6 6 5 5 5 5 4 4 4 4 4 4 4 3
8 8 8 8 8 8 9 8 8 8 8 7 7 8 8 8 8 8 8 8 7 7 7 7 6 6 6 6 6 6 5 5 5 4 4 4 3 3 4 4 3 3
8 8 8 8 8 9 9 8 8 8 8 8 8 8 8 8 8 8 8 8 7 7 7 7 6 6 6 6 6 5 5 5 4 4 4 3 3 3 3 3 3 3
8 8 8 8 9 9 8 8 8 8 8 8 9 8 8 8 8 8 8 8 8 7 7 7 6 6 6 6 6 5 5 5 4 4 4 3 3 3 3 3 3 3
8 8 8 9 9 9 9 8 8 9 9 9 8 8 8 8 8 8 8 8 7 7 7 7 7 6 6 6 6 5 5 5 4 4 3 3 3 3 3 3 3 3
8 8 8 9 9 9 9 9 9 9 9 9 8 8 8 8 8 8 8 8 7 7 7 7 7 6 6 6 6 5 5 5 5 4 3 3 3 3 3 3 3 3
8 8 9 9 9 9 9 9 9 9 9 8 8 8 8 8 8 8 8 8 7 7 7 7 7 7 6 6 6 5 5 5 5 4 4 3 3 3 3 3 3 3
8 8 9 9 9 9 9 9 9 9 8 8 8 8 8 8 8 8 8 7 7 7 7 7 7 7 6 6 6 6 5 5 5 4 4 4 3 3 3 3 3 2
8 8 9 9 9 9 9 9 9 8 8 8 8 8 8 8 8 8 8 7 7 7 7 7 7 7 6 6 6 5 5 5 5 4 4 4 3 3 3 3 3 2
8 8 9 9 9 9 9 9 8 8 8 8 8 8 8 8 8 8 8 7 7 7 7 7 7 7 6 6 6 5 5 5 5 5 4 4 3 2 3 3 3 2
8 8 8 9 8 8 8 8 8 8 8 8 8 8 8 8 8 8 8 7 7 7 7 7 7 7 6 6 6 5 5 5 5 5 5 3 2 2 2 2 2 2
8 8 8 8 8 8 8 8 8 8 8 8 8 7 8 8 8 8 8 7 7 7 7 7 7 7 6 6 6 6 5 5 5 5 5 4 3 2 2 2 2 1
8 8 8 8 8 8 8 8 8 8 8 7 7 7 8 8 8 8 7 7 7 7 7 7 7 6 6 6 6 6 5 5 5 5 5 4 4 3 2 2 1 1
7 7 7 7 7 7 7 7 7 7 7 7 7 7 8 8 8 8 7 7 7 7 7 6 6 6 6 6 6 5 5 5 5 5 5 4 4 3 2 2 1 1
7 7 7 7 7 7 7 7 7 7 7 7 7 7 7 7 7 7 7 7 7 7 6 6 6 6 6 6 5 5 5 5 5 5 4 4 4 3 3 2 2 2
6 6 6 6 6 6 6 6 6 7 7 7 7 7 7 7 7 7 7 7 7 6 6 6 6 6 5 5 5 5 5 5 4 4 4 4 3 3 3 2 2 2
6 6 6 6 6 6 6 6 6 6 6 7 7 7 7 7 7 7 6 6 6 6 6 6 6 6 5 5 5 5 5 4 4 4 4 3 3 3 3 2 2 2
Height
3117 3119 3121 3124 3126 3128 3130 3132 3134 3136 3137 3138 3139 3139 3141 3143 3144 3145 3144 3144 3145 3145 3146 3146 3146 3146 3145 3144 3143 3143 3143 3143 3143 3142 3142 3142 3142 3143 3144 3145 3145 3146
3115 3117 3120 3122 3124 3126 3129 3131 3133 3134 3136 3136 3136 3137 3139 3141 3143 3143 3142 3142 3143 3144 3145 3144 3143 3143 3142 3141 3140 3140 3140 3141 3140 3140 3139 3139 3140 3140 3141 3141 3142 3143
3114 3116 3118 3121 3123 3125 3128 3130 3131 3133 3134 3134 3134 3135 3137 3139 3141 3141 3140 3140 3141 3142 3142 3142 3141 3141 3140 3139 3138 3138 3138 3138 3138 3137 3137 3137 3137 3138 3138 3139 3139 3140
3113 3115 3117 3119 3122 3124 3126 3128 3130 3131 3131 3131 3132 3133 3135 3137 3139 3139 3137 3138 3139 3140 3140 3139 3139 3139 3138 3137 3136 3135 3135 3135 3135 3134 3134 3134 3135 3135 3136 3136 3137 3138
3111 3113 3116 3118 3120 3122 3124 3126 3128 3129 3129 3130 3131 3131 3133 3136 3137 3136 3135 3136 3137 3137 3137 3137 3137 3136 3136 3135 3134 3133 3133 3133 3133 3132 3132 3132 3132 3133 3134 3134 3134 3135
3109 3111 3114 3116 3119 3121 3123 3125 3126 3126 3127 3128 3129 3130 3131 3134 3134 3134 3134 3134 3135 3135 3135 3135 3134 3134 3133 3132 3132 3131 3131 3131 3131 3130 3130 3130 3130 3130 3131 3131 3131 3132
3107 3110 3112 3114 3117 3119 3121 3123 3124 3124 3126 3127 3127 3128 3129 3131 3132 3133 3132 3132 3133 3134 3133 3133 3132 3132 3131 3130 3130 3129 3129 3129 3128 3128 3127 3127 3127 3127 3127 3128 3128 3129
3106 3108 3110 3113 3115 3118 3120 3121 3122 3123 3125 3125 3125 3125 3127 3129 3131 3131 3130 3130 3131 3132 3132 3131 3130 3130 3130 3129 3128 3127 3127 3126 3126 3125 3124 3124 3124 3124 3124 3124 3125 3125
3104 3106 3108 3111 3113 3116 3118 3119 3120 3121 3124 3124 3123 3123 3124 3126 3129 3129 3129 3128 3129 3130 3130 3130 3128 3128 3127 3127 3126 3125 3124 3123 3123 3122 3121 3121 3121 3121 3121 3121 3120 3121
3102 3104 3107 3109 3112 3114 3116 3117 3118 3120 3122 3122 3121 3121 3122 3124 3127 3128 3128 3127 3127 3128 3128 3128 3127 3126 3125 3124 3123 3122 3121 3120 3119 3119 3118 3118 3118 3118 3118 3117 3117 3118
3101 3103 3105 3107 3110 3112 3114 3115 3116 3119 3120 3120 3120 3120 3120 3122 3125 3126 3126 3126 3125 3125 3126 3126 3125 3124 3123 3122 3121 3120 3119 3118 3117 3116 3115 3115 3115 3115 3114 3115 3116 3116
3099 3101 3103 3106 3108 3111 3112 3114 3115 3118 3118 3117 3118 3119 3119 3121 3122 3124 3125 3124 3123 3123 3123 3123 3123 3122 3121 3120 3119 3117 3116 3115 3114 3113 3112 3112 3111 3111 3111 3112 3113 3114
3098 3100 3101 3104 3106 3108 3110 3112 3114 3115 3115 3116 3117 3118 3118 3119 3120 3121 3122 3122 3122 3121 3121 3120 3120 3119 3119 3118 3116 3115 3113 3112 3111 3110 3109 3108 3108 3108 3109 3110 3110 3111
3096 3098 3100 3102 3104 3106 3109 3111 3112 3113 3114 3115 3116 3117 3117 3118 3118 3118 3119 3120 3120 3119 3119 3118 3117 3117 3116 3115 3114 3112 3111 3109 3108 3107 3106 3106 3106 3106 3107 3107 3108 3110
3094 3096 3098 3100 3102 3105 3107 3109 3111 3112 3112 3114 3115 3115 3116 3116 3116 3116 3117 3117 3117 3117 3117 3116 3116 3115 3113 3112 3111 3110 3109 3107 3106 3105 3104 3104 3104 3104 3105 3106 3106 3108
3092 3094 3096 3099 3101 3103 3106 3108 3109 3110 3111 3112 3113 3114 3114 3114 3114 3115 3115 3115 3115 3115 3115 3114 3114 3113 3112 3110 3109 3109 3107 3106 3105 3103 3103 3103 3103 3103 3103 3104 3105 3106
3090 3093 3095 3098 3100 3102 3104 3106 3107 3108 3109 3110 3111 3112 3112 3113 3113 3113 3113 3113 3113 3113 3113 3113 3112 3111 3110 3109 3108 3107 3106 3105 3104 3103 3102 3102 3101 3101 3102 3103 3104 3104
3089 3092 3094 3096 3098 3101 3103 3104 3106 3106 3107 3107 3109 3110 3110 3111 3111 3111 3111 3112 3111 3111 3111 3111 3110 3109 3108 3108 3106 3106 3105 3104 3103 3102 3101 3100 3100 3100 3101 3101 3101 3101
3088 3091 3093 3095 3097 3099 3100 3102 3103 3104 3104 3105 3106 3107 3108 3109 3109 3109 3109 3109 3109 3109 3109 3109 3108 3107 3107 3106 3105 3104 3103 3103 3102 3100 3099 3099 3099 3099 3099 3100 3100 3100
3088 3089 3091 3093 3095 3096 3098 3099 3101 3101 3102 3103 3104 3105 3106 3107 3107 3107 3107 3107 3107 3107 3107 3107 3106 3106 3105 3105 3104 3103 3103 3102 3101 3100 3098 3098 3097 3098 3098 3098 3099 3099
3086 3088 3090 3091 3093 3094 3095 3096 3098 3099 3100 3101 3102 3103 3104 3104 3105 3105 3105 3105 3105 3105 3105 3105 3104 3104 3104 3104 3103 3102 3102 3101 3100 3099 3098 3098 3097 3097 3098 3098 3098 3098
3085 3086 3088 3089 3091 3092 3093 3094 3095 3097 3098 3099 3100 3101 3102 3102 3103 3103 3103 3103 3103 3103 3103 3103 3103 3103 3103 3102 3102 3102 3101 3100 3100 3099 3098 3098 3097 3097 3097 3097 3097 3098
3083 3084 3086 3087 3088 3090 3091 3092 3093 3094 3095 3097 3098 3099 3099 3100 3100 3100 3100 3101 3101 3101 3101 3101 3101 3101 3101 3101 3100 3100 3100 3099 3099 3099 3098 3098 3097 3097 3097 3097 3097 3098
3080 3082 3083 3085 3086 3088 3089 3090 3091 3092 3093 3094 3095 3096 3097 3098 3098 3098 3098 3099 3099 3099 3099 3099 3099 3099 3099 3099 3099 3099 3098 3098 3098 3097 3097 3097 3096 3096 3096 3096 3097 3097
3079 3080 3081 3083 3084 3085 3087 3088 3089 3089 3090 3091 3093 3094 3095 3095 3095 3096 3096 3097 3097 3097 3097 3098 3098 3098 3098 3097 3097 3097 3097 3097 3096 3096 3096 3096 3096 3096 3096 3096 3096 3097
3077 3078 3079 3080 3082 3083 3084 3085 3086 3087 3088 3089 3090 3091 3092 3093 3093 3094 3094 3094 3095 3095 3096 3096 3096 3096 3096 3096 3096 3096 3096 3096 3095 3095 3095 3095 3095 3095 3095 3095 3095 3096
Wind_Speed
23 28 28 29 29 28 27 25 25 24 23 22 21 21 21 21 19 19 19 19 18 18 17 17 17 17 18 20 21 21 22 22 22 22 24 25 25 25 24 22 21 21
26 30 30 31 30 29 26 24 24 23 21 21 21 22 22 20 18 19 20 20 20 19 18 18 17 16 17 20 21 22 23 22 21 22 23 24 25 24 23 23 23 23
29 31 32 32 30 28 25 24 24 22 20 21 23 23 22 20 18 19 20 21 20 18 18 18 18 17 18 21 23 24 23 22 21 22 22 23 25 25 23 24 25 24
31 32 33 32 28 26 26 25 24 21 21 23 23 23 23 21 19 20 22 21 19 18 18 19 18 18 19 21 23 24 22 21 21 22 22 22 24 25 25 24 24 23
31 33 33 32 28 26 27 27 24 22 23 24 24 24 22 20 20 21 22 21 19 18 18 19 19 19 20 22 23 23 22 21 20 20 21 22 22 24 25 25 24 23
31 33 33 32 29 27 28 27 24 23 25 25 25 24 21 20 21 22 22 21 19 18 18 19 20 20 21 22 22 22 21 21 20 19 19 21 22 24 25 25 24 24
31 33 33 32 30 28 29 28 25 25 25 25 26 24 20 20 20 21 21 19 17 17 18 19 20 20 21 22 22 21 21 21 21 20 19 20 21 23 26 26 26 26
30 32 33 32 31 29 29 29 27 26 26 24 24 21 19 19 19 21 21 19 17 16 17 19 20 21 21 22 22 23 22 21 21 21 20 20 21 23 25 26 27 27
31 33 33 32 31 30 30 29 28 27 25 23 21 21 20 19 19 20 20 18 17 17 17 19 20 21 21 22 22 22 23 23 23 22 22 21 21 22 24 26 28 28
31 33 33 32 32 32 31 29 28 26 23 21 20 21 22 20 18 19 18 18 18 18 18 19 20 21 22 22 23 23 23 23 24 24 24 23 22 22 25 28 27 27
32 33 33 33 33 34 32 30 28 25 22 21 21 22 23 20 18 17 18 18 19 18 19 20 20 20 21 22 23 23 23 23 24 25 25 24 23 24 26 26 25 26
33 33 34 34 35 34 32 29 26 23 21 21 22 22 22 19 17 17 17 18 19 19 19 20 20 19 20 21 21 22 23 22 23 24 24 25 25 24 24 24 25 26
33 34 34 35 35 35 32 28 25 23 22 21 20 21 20 18 17 17 17 17 18 18 19 19 19 20 20 20 21 21 21 21 22 23 23 24 25 24 22 24 25 25
33 34 34 35 35 35 32 29 26 23 21 20 19 20 19 17 17 18 17 17 17 17 19 19 20 21 21 20 20 20 20 20 20 20 20 20 21 21 22 24 24 24
33 34 34 35 35 34 32 29 25 22 20 20 20 19 18 18 18 18 18 17 17 18 19 19 19 20 20 20 19 19 18 18 16 17 17 16 16 19 21 23 24 23
33 35 36 35 35 34 32 28 24 21 20 20 20 19 19 18 18 19 18 18 17 18 19 19 18 19 19 18 18 17 15 14 14 15 16 15 17 19 20 21 22 21
32 34 35 34 33 32 30 26 23 21 20 21 20 19 19 19 19 19 18 18 18 19 18 18 18 17 17 17 17 15 13 12 12 12 15 16 16 17 17 17 17 18
29 30 31 31 30 29 27 25 22 21 22 22 21 20 20 19 19 19 18 18 18 18 17 17 16 16 15 15 15 14 12 12 12 12 14 16 15 14 15 15 16 16
24 25 26 27 27 26 26 24 23 23 24 23 22 21 20 19 19 18 18 18 19 17 16 15 15 14 14 13 13 13 13 13 12 12 12 13 12 12 13 15 16 15
22 23 24 25 26 26 26 26 25 25 25 24 22 21 20 20 19 18 18 19 18 16 15 14 13 13 12 11 12 12 12 11 10 8 6 7 10 13 14 14 13 10
23 24 25 26 27 27 27 27 27 26 25 24 22 21 20 19 19 18 19 19 17 15 13 12 12 11 10 10 10 10 9 9 7 4 2 3 6 10 12 12 11 8
24 25 26 27 27 28 28 27 27 26 25 23 22 20 19 19 18 18 19 18 15 13 11 11 10 9 8 8 7 7 7 7 5 4 2 1 2 5 9 12 12 12
23 26 27 28 27 27 26 26 26 25 25 24 22 19 18 18 18 19 19 16 13 11 10 10 9 8 7 6 5 5 5 5 5 4 3 2 1 3 8 11 13 14
22 24 26 26 25 25 24 24 25 25 25 24 22 20 18 18 19 20 18 14 11 10 9 9 9 7 6 5 4 4 4 5 5 4 3 3 1 3 8 12 14 15
22 22 23 24 25 25 24 24 24 25 25 24 23 20 19 19 20 20 17 13 10 10 9 9 9 7 5 5 5 4 4 4 5 5 4 3 3 4 7 11 14 15
22 22 23 24 25 25 24 24 24 24 25 25 23 21 20 20 21 20 16 12 11 10 10 10 9 8 6 6 6 6 5 5 6 6 6 5 5 6 8 10 13 15
Wind_Direction
196 190 191 194 197 201 204 206 207 210 214 217 221 225 228 232 238 244 247 246 250 259 270 277 279 283 286 287 287 285 283 279 277 272 264 259 256 256 256 254 251 251
191 188 191 195 198 202 203 204 206 209 213 216 221 227 230 233 240 246 248 249 254 264 274 277 277 281 284 284 282 281 281 278 276 274 268 260 255 254 252 250 249 250
189 190 193 196 200 203 203 203 205 209 213 218 224 229 233 237 243 247 248 252 259 268 272 272 273 277 279 279 278 277 277 278 275 274 271 264 256 252 250 250 252 252
190 192 196 199 201 202 203 204 206 208 215 220 226 230 235 240 243 246 249 256 263 267 269 271 274 277 277 277 278 277 276 277 275 273 272 268 260 255 253 253 254 251
193 196 199 201 202 202 203 206 208 212 217 222 227 232 236 240 243 246 252 260 264 267 271 274 276 277 276 276 277 278 277 277 276 273 270 268 263 258 254 253 252 248
196 198 201 203 203 204 205 206 210 215 220 224 229 233 237 240 243 248 254 258 261 266 272 274 275 277 278 278 278 278 277 277 275 272 269 266 262 258 253 250 248 245
199 200 202 204 204 206 207 209 213 216 220 226 230 233 238 240 241 247 254 257 259 266 273 277 278 277 278 279 280 279 278 276 275 272 269 264 260 256 251 247 244 243
202 201 203 205 206 207 209 211 216 218 220 226 231 234 239 241 240 245 253 258 262 268 274 277 277 277 279 280 280 280 279 277 276 274 270 264 258 254 251 247 242 239
203 202 203 205 206 208 210 212 217 219 220 225 231 236 242 243 241 244 252 259 265 271 275 276 277 280 282 282 281 281 278 277 277 275 271 265 258 254 251 247 239 233
204 203 204 205 207 209 211 214 218 219 219 224 230 237 245 248 245 247 254 262 267 272 277 279 280 281 284 285 284 282 278 276 275 273 271 265 259 254 251 246 238 232
206 205 205 206 209 210 212 215 218 219 221 226 232 240 247 251 252 254 261 266 270 273 277 280 280 280 282 285 286 284 280 277 275 275 272 267 261 255 253 249 241 235
207 207 207 208 210 211 212 215 218 219 224 230 236 242 247 253 258 263 266 268 270 274 279 283 283 283 285 288 289 288 284 282 280 278 275 270 262 257 256 251 241 237
209 208 210 210 211 211 212 215 218 220 226 232 238 243 248 257 264 269 271 270 271 275 281 287 289 289 292 295 296 293 289 288 285 280 275 269 261 254 250 247 240 239
210 209 211 212 212 212 213 215 219 223 228 232 237 242 248 258 267 272 275 274 275 278 283 289 293 297 299 300 300 298 294 292 288 282 275 267 258 248 243 242 241 242
211 210 212 213 214 215 215 217 222 227 229 231 235 241 248 258 268 274 277 275 275 277 282 290 296 300 302 302 302 300 295 292 288 281 273 258 243 239 239 241 242 245
211 211 214 216 217 218 218 220 225 229 229 231 235 241 250 259 267 273 275 273 273 277 284 293 299 302 302 302 302 300 295 292 289 283 274 256 237 233 236 239 243 247
213 213 215 218 220 221 221 223 228 231 231 233 237 243 251 259 265 271 272 270 272 279 288 297 301 301 300 300 302 303 300 297 295 287 277 263 246 233 232 240 250 253
214 215 217 219 220 221 223 227 230 231 233 235 240 247 253 259 264 269 269 269 273 281 292 300 301 298 298 300 302 304 302 302 303 293 276 264 249 233 233 250 262 257
210 212 214 215 217 220 224 227 227 228 232 237 242 250 256 260 264 267 267 268 273 283 294 299 296 294 298 301 303 304 303 305 305 294 277 263 250 241 246 257 260 253
211 211 213 214 217 222 224 224 224 227 231 237 244 252 258 261 263 263 264 267 274 286 295 294 289 292 298 301 303 305 306 306 305 299 284 263 252 249 248 246 243 241
218 217 218 218 221 223 224 224 225 228 232 238 245 253 258 259 259 259 260 265 276 288 291 285 284 290 295 296 301 306 309 311 312 320 320 268 248 242 236 229 223 215
222 221 220 220 221 223 225 226 228 231 234 240 247 253 257 256 256 256 258 264 276 284 280 276 279 284 285 288 298 307 314 318 320 329 346 336 250 228 225 223 218 210
224 222 221 221 223 224 226 228 230 234 238 243 249 254 254 252 251 252 256 264 273 273 265 266 271 273 275 282 296 312 323 322 318 326 349 359 336 227 223 223 218 211
225 223 222 223 224 225 227 230 234 239 243 247 251 253 249 246 247 250 254 261 264 258 253 257 261 262 267 278 290 308 320 319 313 322 338 348 328 237 228 226 222 219
224 224 224 225 227 230 233 236 241 244 247 250 251 248 244 242 244 247 251 253 249 242 242 247 250 251 256 266 278 292 305 311 311 314 317 320 304 264 245 238 236 238
224 225 225 226 229 231 234 238 243 245 247 249 247 244 241 240 241 244 246 241 233 230 232 235 238 239 242 250 263 274 285 297 302 305 307 304 292 278 264 255 253 255